User: anonymous   Login
Location: Caltech
(34.1382°N, 118.1253°W)
Time: 14:08:05
(UTC-07:00)
Language:

RS-15 - Orbit

View from above orbital plane
View from above orbital plane
View from above satellite
View from above satellite

Ground track
Ground track

The orbit data is extracted from the following two-line orbital elements,

1 23439U 94085A   16208.89378821 -.00000039  00000-0  93823-4 0  9992
2 23439  64.8176  25.3064 0166165 301.1286 208.8089 11.27564696888894
Epoch (UTC): 26 July 2016 21:27:03
Eccentricity: 0.0166165
inclination: 64.8176°
perigee height: 1883 km
apogee height: 2162 km
right ascension of ascending node: 25.3064°
argument of perigee: 301.1286°
revolutions per day: 11.27564696
mean anomaly at epoch: 208.8089°
orbit number at epoch: 88889

The dashed part of the orbit path shows where the satellite is in the earth's shadow,  

DLR